FW8640 Weather Reports


time (UTC)temp
C
wind
direction
speed
KPH
gust
KPH
rain 1hr
cm
rain 24hr
cm
rain mn
cm
humidity
%
barometer
mb
20260505171018 24 0.0 0.0 0.00 0.00 0.00 36 1013.9
20260505170018 25 0.0 4.8 0.00 0.00 0.00 35 1014.0
20260505165018 25 0.0 3.2 0.00 0.00 0.00 36 1014.2
20260505164018 25 0.0 3.2 0.00 0.00 0.00 35 1014.3
20260505163018 26 0.0 1.6 0.00 0.00 0.00 34 1014.1
20260505162020 26 0.0 6.4 0.00 0.00 0.00 33 1014.2
20260505161018 26 0.0 8.0 0.00 0.00 0.00 33 1014.0
20260505153018 26 203 1.6 11.3 0.00 0.00 0.00 38 1014.2
20260505152018 26 0.0 8.0 0.00 0.00 0.00 36 1014.3
20260505151017 26 203 1.6 8.0 0.00 0.00 0.00 35 1014.3
20260505125017 26 203 3.2 14.5 0.00 0.00 0.00 36 1015.0
20260505124040 26 203 1.6 11.3 0.00 0.00 0.00 39 1015.1
20260505123018 26 203 1.6 8.0 0.00 0.00 0.00 40 1015.3
20260505122018 26 225 1.6 11.3 0.00 0.00 0.00 41 1015.4
20260505121019 25 225 1.6 9.7 0.00 0.00 0.00 42 1015.5
20260505120017 26 225 1.6 4.8 0.00 0.00 0.00 42 1015.7
20260505115018 26 225 1.6 9.7 0.00 0.00 0.00 40 1015.7
20260505114017 27 0.0 4.8 0.00 0.00 0.00 37 1015.9
20260505113040 27 248 1.6 4.8 0.00 0.00 0.00 34 1015.8
20260505112020 27 248 1.6 3.2 0.00 0.00 0.00 33 1015.9
20260505111019 26 0.0 4.8 0.00 0.00 0.00 33 1015.9
20260505102104 25 248 1.6 12.9 0.00 0.00 0.00 40 1016.4
20260505101021 25 0.0 6.4 0.00 0.00 0.00 40 1016.4
20260505100019 25 0.0 3.2 0.00 0.00 0.00 41 1016.4
20260505095020 25 0.0 3.2 0.00 0.00 0.00 41 1016.5
20260505094021 24 0.0 4.8 0.00 0.00 0.00 43 1016.7
20260505093105 23 0.0 3.2 0.00 0.00 0.00 44 1016.8
20260505092020 23 0.0 6.4 0.00 0.00 0.00 46 1016.9
20260505091019 23 0.0 4.8 0.00 0.00 0.00 46 1016.9
20260505090021 23 248 1.6 6.4 0.00 0.00 0.00 48 1016.9
20260505085020 23 248 1.6 12.9 0.00 0.00 0.00 48 1017.0
20260505084020 23 248 1.6 9.7 0.00 0.00 0.00 47 1017.1
20260505083041 22 248 1.6 8.0 0.00 0.00 0.00 45 1017.4
20260505082042 22 248 1.6 8.0 0.00 0.00 0.00 46 1017.3
20260505081019 21 248 1.6 8.0 0.00 0.00 0.00 50 1017.4
20260505080019 21 248 1.6 6.4 0.00 0.00 0.00 48 1017.3
20260505075019 21 248 1.6 9.7 0.00 0.00 0.00 47 1017.4
20260505074019 21 248 6.4 16.1 0.00 0.00 0.00 40 1017.3
20260505073042 21 225 4.8 17.7 0.00 0.00 0.00 40 1017.3
20260505072021 20 203 6.4 14.5 0.00 0.00 0.00 44 1017.5
20260505071019 20 203 4.8 11.3 0.00 0.00 0.00 45 1017.4
20260505070019 20 203 6.4 12.9 0.00 0.00 0.00 46 1017.6
20260505065020 19 203 3.2 9.7 0.00 0.00 0.00 48 1017.6
20260505064019 18 203 1.6 6.4 0.00 0.00 0.00 50 1017.5
20260505063018 18 0.0 3.2 0.00 0.00 0.00 57 1017.4
20260505062019 18 0.0 3.2 0.00 0.00 0.00 58 1017.3
20260505061018 18 0.0 4.8 0.00 0.00 0.00 60 1017.5
20260505055019 17 0.0 0.0 0.00 0.00 0.00 67 1017.6
20260505054018 16 0.0 0.0 0.00 0.00 0.00 68 1017.6
20260505053018 15 0.0 0.0 0.00 0.00 0.00 70 1017.4
20260505052018 15 0.0 0.0 0.00 0.00 0.00 71 1017.6
20260505051103 14 0.0 0.0 0.00 0.00 0.00 72 1017.5
20260505041019 12 0.0 0.0 0.00 0.00 0.00 72 1017.2
20260505040018 12 0.0 0.0 0.00 0.00 0.00 71 1017.3
20260505035019 12 0.0 0.0 0.00 0.00 0.00 71 1017.2
20260505034018 12 0.0 0.0 0.00 0.00 0.00 71 1017.2
20260505033019 12 0.0 0.0 0.00 0.00 0.00 70 1017.1
20260505032042 12 0.0 0.0 0.00 0.00 0.00 70 1017.2
20260505031018 12 0.0 0.0 0.00 0.00 0.00 69 1017.3
20260505030018 12 0.0 0.0 0.00 0.00 0.00 69 1017.2
20260505025020 12 0.0 0.0 0.00 0.00 0.00 68 1017.3
20260505024040 12 0.0 0.0 0.00 0.00 0.00 66 1017.5
20260505023020 12 0.0 0.0 0.00 0.00 0.00 66 1017.5
20260505022018 12 0.0 0.0 0.00 0.00 0.00 65 1017.5
20260505021018 12 0.0 0.0 0.00 0.00 0.00 65 1017.4
20260505020104 12 0.0 0.0 0.00 0.00 0.00 66 1017.4
20260505015043 12 0.0 0.0 0.00 0.00 0.00 66 1017.4
20260505014018 12 0.0 0.0 0.00 0.00 0.00 66 1017.4
20260505013018 12 0.0 0.0 0.00 0.00 0.00 66 1017.5
20260505012019 12 0.0 0.0 0.00 0.00 0.00 67 1017.5
20260505011020 12 0.0 0.0 0.00 0.00 0.00 68 1017.6
20260505010018 12 0.0 0.0 0.00 0.00 0.00 68 1017.5
20260505005018 12 0.0 0.0 0.00 0.00 0.00 68 1017.6
20260505004018 13 0.0 0.0 0.00 0.00 0.00 67 1017.5
20260505003019 13 0.0 0.0 0.00 0.00 0.00 66 1017.6
20260505002018 13 0.0 0.0 0.00 0.00 0.00 66 1017.6
20260505001039 13 0.0 0.0 0.00 0.00 0.00 65 1017.5
20260505000020 13 0.0 0.0 0.00 0.00 0.00 64 1017.6
20260504235018 13 0.0 0.0 0.00 0.00 0.00 63 1017.5
20260504234017 13 0.0 0.0 0.00 0.00 0.00 62 1017.5
20260504233017 13 0.0 0.0 0.00 0.00 0.00 61 1017.6
20260504232039 13 0.0 0.0 0.00 0.00 0.00 60 1017.7
20260504231018 13 0.0 0.0 0.00 0.00 0.00 58 1017.7
20260504230017 13 0.0 0.0 0.00 0.00 0.00 58 1017.6
20260504225018 13 0.0 0.0 0.00 0.00 0.00 58 1017.7
20260504224019 13 0.0 0.0 0.00 0.00 0.00 57 1017.7
20260504223017 13 0.0 0.0 0.00 0.00 0.00 58 1017.6
20260504222019 13 0.0 0.0 0.00 0.00 0.00 58 1017.7
20260504221020 13 0.0 0.0 0.00 0.00 0.00 57 1017.8
20260504220017 14 0.0 0.0 0.00 0.00 0.00 57 1017.9
20260504215019 14 0.0 0.0 0.00 0.00 0.00 57 1017.9
20260504214018 14 0.0 0.0 0.00 0.00 0.00 57 1017.9
20260504213019 14 0.0 0.0 0.00 0.00 0.00 57 1017.9
20260504212017 14 0.0 0.0 0.00 0.00 0.00 56 1017.9
20260504211018 14 0.0 0.0 0.00 0.00 0.00 56 1017.8
20260504210019 15 0.0 0.0 0.00 0.00 0.00 56 1017.8
20260504205018 15 0.0 0.0 0.00 0.00 0.00 56 1017.8
20260504204018 15 0.0 0.0 0.00 0.00 0.00 56 1017.7
20260504203040 15 0.0 0.0 0.00 0.00 0.00 54 1017.6
20260504202020 15 0.0 0.0 0.00 0.00 0.00 54 1017.7
20260504201020 15 0.0 0.0 0.00 0.00 0.00 53 1017.6
20260504200020 15 0.0 0.0 0.00 0.00 0.00 52 1017.5
20260504195020 16 0.0 0.0 0.00 0.00 0.00 52 1017.5
20260504194041 16 0.0 0.0 0.00 0.00 0.00 51 1017.5
20260504193019 16 0.0 0.0 0.00 0.00 0.00 51 1017.4
20260504192020 16 0.0 0.0 0.00 0.00 0.00 51 1017.4
20260504191039 17 0.0 0.0 0.00 0.00 0.00 50 1017.4
20260504190020 17 0.0 0.0 0.00 0.00 0.00 49 1017.4
20260504185040 17 0.0 0.0 0.00 0.00 0.00 48 1017.4
20260504184103 17 0.0 0.0 0.00 0.00 0.00 48 1017.3
20260504183020 17 0.0 0.0 0.00 0.00 0.00 48 1017.1
20260504182018 18 0.0 0.0 0.00 0.00 0.00 48 1017.2
20260504181020 18 0.0 0.0 0.00 0.00 0.00 48 1017.1
20260504180040 18 0.0 0.0 0.00 0.00 0.00 48 1017.1
20260504175018 19 0.0 0.0 0.00 0.00 0.00 47 1017.1
20260504174041 19 0.0 0.0 0.00 0.00 0.00 46 1017.2
20260504173018 20 0.0 0.0 0.00 0.00 0.00 45 1017.0
20260504172020 20 0.0 0.0 0.00 0.00 0.00 43 1016.9